Location: Mountain Grove
(34.0887°N, 86.6172°W)
Time: 21:16:31
(UTC+00:00)

Cosmos 2366 rocket - Pass Details

Date: 14 July 2020
Orbit: 954 x 998 km, 82.9° (Epoch: 08 August)

Event Time Altitude Azimuth Distance (km) Brightness Sun altitude
Exits shadow 04:03:45 53° 77° (ENE) 1,210 4.3 -28.6°
Drops below altitude 10° 04:09:27 10° 16° (NNE) 2,760 6.9 -29.2°
Sets 04:12:02 0° 12° (NNE) 3,708 7.7 -29.4°
